Time,TemperatureF,DewpointF,PressureIn,WindDirection,WindDirectionDegrees,WindSpeedMPH,WindSpeedGustMPH,Humidity,HourlyPrecipIn,Conditions,Clouds,dailyrainin,SoftwareType,DateUTC
2013-05-29 00:05:00,73.5,69.0,29.80,SSE,153,5.0,8.0,85,0.00,,,0.00,weatherlink.com 1.10,2013-05-29 05:05:00,
2013-05-29 00:20:00,73.1,69.0,29.78,SSW,198,2.0,9.0,86,0.00,,,0.00,weatherlink.com 1.10,2013-05-29 05:20:00,
2013-05-29 00:35:00,72.5,69.0,29.79,SSW,203,0.0,9.0,88,0.00,,,0.00,weatherlink.com 1.10,2013-05-29 05:35:00,
2013-05-29 00:50:00,71.8,69.0,29.79,SSW,201,4.0,7.0,89,0.00,,,0.00,weatherlink.com 1.10,2013-05-29 05:50:00,
2013-05-29 01:05:00,71.8,69.0,29.79,ESE,104,10.0,10.0,89,0.00,,,0.00,weatherlink.com 1.10,2013-05-29 06:05:00,
2013-05-29 01:21:00,71.7,69.0,29.76,SSE,155,2.0,11.0,90,0.00,,,0.00,weatherlink.com 1.10,2013-05-29 06:21:00,
2013-05-29 01:36:00,71.8,69.0,29.76,SSW,201,6.0,14.0,89,0.00,,,0.00,weatherlink.com 1.10,2013-05-29 06:36:00,
2013-05-29 01:51:00,71.7,68.0,29.75,SSE,164,4.0,15.0,89,0.00,,,0.00,weatherlink.com 1.10,2013-05-29 06:51:00,
2013-05-29 02:06:00,71.4,68.0,29.75,SSW,212,4.0,15.0,89,0.00,,,0.00,weatherlink.com 1.10,2013-05-29 07:06:00,
2013-05-29 02:21:00,71.2,68.0,29.74,SSW,201,5.0,15.0,90,0.00,,,0.00,weatherlink.com 1.10,2013-05-29 07:21:00,
2013-05-29 02:36:00,71.1,68.0,29.73,SW,214,11.0,14.0,90,0.00,,,0.00,weatherlink.com 1.10,2013-05-29 07:36:00,
2013-05-29 02:51:00,71.1,68.0,29.72,SSE,167,8.0,18.0,89,0.00,,,0.00,weatherlink.com 1.10,2013-05-29 07:51:00,
2013-05-29 03:06:00,71.1,68.0,29.71,SSE,166,5.0,17.0,89,0.00,,,0.00,weatherlink.com 1.10,2013-05-29 08:06:00,
2013-05-29 03:21:00,71.1,68.0,29.70,SE,134,15.0,19.0,89,0.00,,,0.00,weatherlink.com 1.10,2013-05-29 08:21:00,
2013-05-29 03:36:00,71.1,68.0,29.69,SSE,150,13.0,25.0,89,0.00,,,0.00,weatherlink.com 1.10,2013-05-29 08:36:00,
2013-05-29 03:51:00,71.2,68.0,29.68,WSW,243,21.0,23.0,89,0.00,,,0.00,weatherlink.com 1.10,2013-05-29 08:51:00,
2013-05-29 04:06:00,71.3,68.0,29.67,SSW,195,16.0,30.0,88,0.00,,,0.00,weatherlink.com 1.10,2013-05-29 09:06:00,
2013-05-29 04:21:00,71.3,68.0,29.66,SW,226,13.0,21.0,88,0.00,,,0.00,weatherlink.com 1.10,2013-05-29 09:21:00,
2013-05-29 04:36:00,71.4,68.0,29.66,SSW,206,9.0,24.0,88,0.00,,,0.00,weatherlink.com 1.10,2013-05-29 09:36:00,
2013-05-29 04:51:00,71.5,68.0,29.65,SE,145,17.0,23.0,88,0.00,,,0.00,weatherlink.com 1.10,2013-05-29 09:51:00,
2013-05-29 05:06:00,71.7,68.0,29.64,SW,225,16.0,28.0,87,0.00,,,0.00,weatherlink.com 1.10,2013-05-29 10:06:00,
2013-05-29 05:21:00,71.9,68.0,29.65,SW,230,10.0,24.0,87,0.00,,,0.00,weatherlink.com 1.10,2013-05-29 10:21:00,
2013-05-29 05:36:00,72.0,68.0,29.64,SSW,205,10.0,21.0,87,0.00,,,0.00,weatherlink.com 1.10,2013-05-29 10:36:00,
2013-05-29 05:51:00,72.1,68.0,29.65,SSW,203,10.0,26.0,87,0.00,,,0.00,weatherlink.com 1.10,2013-05-29 10:51:00,
2013-05-29 06:06:00,72.1,68.0,29.62,SE,139,15.0,25.0,87,0.00,,,0.00,weatherlink.com 1.10,2013-05-29 11:06:00,
2013-05-29 06:21:00,72.1,68.0,29.61,South,188,16.0,28.0,87,0.00,,,0.00,weatherlink.com 1.10,2013-05-29 11:21:00,
2013-05-29 06:36:00,72.3,68.0,29.63,SW,218,13.0,29.0,86,0.00,,,0.00,weatherlink.com 1.10,2013-05-29 11:36:00,
2013-05-29 06:51:00,72.6,68.0,29.64,SSW,205,6.0,22.0,85,0.00,,,0.00,weatherlink.com 1.10,2013-05-29 11:51:00,
2013-05-29 07:06:00,72.4,68.0,29.61,SSW,203,16.0,27.0,86,0.00,,,0.00,weatherlink.com 1.10,2013-05-29 12:06:00,
2013-05-29 07:21:00,72.4,68.0,29.60,South,185,13.0,29.0,86,0.00,,,0.00,weatherlink.com 1.10,2013-05-29 12:21:00,
2013-05-29 07:36:00,72.4,68.0,29.59,East,82,7.0,30.0,86,0.00,,,0.00,weatherlink.com 1.10,2013-05-29 12:36:00,
2013-05-29 07:51:00,72.4,68.0,29.64,SSW,211,14.0,18.0,86,0.00,,,0.00,weatherlink.com 1.10,2013-05-29 12:51:00,
2013-05-29 08:06:00,72.5,68.0,29.68,SW,225,12.0,23.0,86,0.00,,,0.00,weatherlink.com 1.10,2013-05-29 13:06:00,
2013-05-29 08:21:00,72.6,68.0,29.67,SSW,200,5.0,9.0,86,0.00,,,0.00,weatherlink.com 1.10,2013-05-29 13:21:00,
2013-05-29 08:36:00,73.4,68.0,29.68,SSW,210,14.0,22.0,83,0.00,,,0.00,weatherlink.com 1.10,2013-05-29 13:36:00,
2013-05-29 08:51:00,73.4,68.0,29.68,SSW,198,7.0,17.0,83,0.00,,,0.00,weatherlink.com 1.10,2013-05-29 13:51:00,
2013-05-29 09:06:00,73.4,68.0,29.68,SW,214,11.0,16.0,83,0.00,,,0.00,weatherlink.com 1.10,2013-05-29 14:06:00,
2013-05-29 09:21:00,73.4,68.0,29.69,SW,219,3.0,13.0,84,0.00,,,0.00,weatherlink.com 1.10,2013-05-29 14:21:00,
2013-05-29 09:36:00,73.5,68.0,29.69,SW,222,14.0,21.0,83,0.00,,,0.00,weatherlink.com 1.10,2013-05-29 14:36:00,
2013-05-29 09:51:00,73.7,68.0,29.69,SE,145,4.0,16.0,83,0.00,,,0.00,weatherlink.com 1.10,2013-05-29 14:51:00,
2013-05-29 10:06:00,74.1,69.0,29.69,SW,226,10.0,18.0,83,0.00,,,0.00,weatherlink.com 1.10,2013-05-29 15:06:00,
2013-05-29 10:22:00,74.3,68.0,29.69,SSW,198,5.0,22.0,81,0.00,,,0.00,weatherlink.com 1.10,2013-05-29 15:22:00,
2013-05-29 10:37:00,74.5,69.0,29.69,SSW,198,5.0,15.0,82,0.00,,,0.00,weatherlink.com 1.10,2013-05-29 15:37:00,
2013-05-29 10:52:00,74.2,68.0,29.69,SW,215,7.0,16.0,82,0.00,,,0.00,weatherlink.com 1.10,2013-05-29 15:52:00,
2013-05-29 11:07:00,74.6,69.0,29.69,SSW,205,3.0,13.0,82,0.00,,,0.00,weatherlink.com 1.10,2013-05-29 16:07:00,
2013-05-29 11:22:00,75.6,69.0,29.68,SE,141,11.0,14.0,80,0.00,,,0.00,weatherlink.com 1.10,2013-05-29 16:22:00,
2013-05-29 11:37:00,75.4,69.0,29.68,SSW,204,5.0,13.0,81,0.00,,,0.00,weatherlink.com 1.10,2013-05-29 16:37:00,
2013-05-29 11:52:00,75.6,69.0,29.68,SSW,204,7.0,13.0,80,0.00,,,0.00,weatherlink.com 1.10,2013-05-29 16:52:00,
2013-05-29 12:07:00,75.2,69.0,29.69,SW,229,10.0,14.0,81,0.00,,,0.00,weatherlink.com 1.10,2013-05-29 17:07:00,
2013-05-29 12:22:00,75.5,69.0,29.69,SSW,204,5.0,16.0,81,0.00,,,0.00,weatherlink.com 1.10,2013-05-29 17:22:00,
2013-05-29 12:37:00,76.0,69.0,29.69,South,176,4.0,12.0,80,0.00,,,0.00,weatherlink.com 1.10,2013-05-29 17:37:00,
2013-05-29 12:52:00,75.4,70.0,29.69,SSW,207,6.0,13.0,82,0.00,,,0.00,weatherlink.com 1.10,2013-05-29 17:52:00,
2013-05-29 13:07:00,75.8,70.0,29.69,SSW,197,6.0,15.0,82,0.00,,,0.00,weatherlink.com 1.10,2013-05-29 18:07:00,
2013-05-29 13:22:00,76.9,71.0,29.69,SSE,165,5.0,14.0,81,0.00,,,0.00,weatherlink.com 1.10,2013-05-29 18:22:00,
2013-05-29 13:37:00,76.9,71.0,29.69,SSE,149,6.0,12.0,81,0.00,,,0.00,weatherlink.com 1.10,2013-05-29 18:37:00,
2013-05-29 13:52:00,77.2,71.0,29.69,SSW,212,6.0,15.0,80,0.00,,,0.00,weatherlink.com 1.10,2013-05-29 18:52:00,
2013-05-29 14:07:00,78.6,72.0,29.68,SE,140,6.0,17.0,79,0.00,,,0.00,weatherlink.com 1.10,2013-05-29 19:07:00,
2013-05-29 14:22:00,78.2,71.0,29.68,SSW,203,7.0,15.0,79,0.00,,,0.00,weatherlink.com 1.10,2013-05-29 19:22:00,
2013-05-29 14:37:00,77.0,71.0,29.68,SSW,194,7.0,13.0,82,0.00,,,0.00,weatherlink.com 1.10,2013-05-29 19:37:00,
2013-05-29 14:52:00,78.4,71.0,29.67,SSW,210,5.0,15.0,78,0.00,,,0.00,weatherlink.com 1.10,2013-05-29 19:52:00,
2013-05-29 15:07:00,79.2,72.0,29.67,SW,228,9.0,17.0,78,0.00,,,0.00,weatherlink.com 1.10,2013-05-29 20:07:00,
2013-05-29 15:22:00,80.9,72.0,29.66,SSW,194,8.0,15.0,74,0.00,,,0.00,weatherlink.com 1.10,2013-05-29 20:22:00,
2013-05-29 15:37:00,80.6,72.0,29.66,SW,217,6.0,16.0,75,0.00,,,0.00,weatherlink.com 1.10,2013-05-29 20:37:00,
2013-05-29 15:52:00,80.7,71.0,29.66,SW,226,7.0,17.0,72,0.00,,,0.00,weatherlink.com 1.10,2013-05-29 20:52:00,
2013-05-29 16:07:00,80.9,72.0,29.65,ESE,103,5.0,13.0,73,0.00,,,0.00,weatherlink.com 1.10,2013-05-29 21:07:00,
2013-05-29 16:22:00,81.5,71.0,29.64,SSE,158,5.0,17.0,70,0.00,,,0.00,weatherlink.com 1.10,2013-05-29 21:22:00,
2013-05-29 16:37:00,81.4,71.0,29.63,SSW,192,6.0,14.0,71,0.00,,,0.00,weatherlink.com 1.10,2013-05-29 21:37:00,
2013-05-29 16:52:00,81.0,71.0,29.63,SSW,212,7.0,18.0,72,0.00,,,0.00,weatherlink.com 1.10,2013-05-29 21:52:00,
2013-05-29 17:07:00,81.8,72.0,29.62,SSW,203,9.0,18.0,71,0.00,,,0.00,weatherlink.com 1.10,2013-05-29 22:07:00,
2013-05-29 17:22:00,81.8,71.0,29.62,SW,225,5.0,19.0,70,0.00,,,0.00,weatherlink.com 1.10,2013-05-29 22:22:00,
2013-05-29 17:37:00,81.2,71.0,29.62,SSE,148,9.0,15.0,71,0.00,,,0.00,weatherlink.com 1.10,2013-05-29 22:37:00,
2013-05-29 17:52:00,80.9,71.0,29.62,South,177,4.0,14.0,71,0.00,,,0.00,weatherlink.com 1.10,2013-05-29 22:52:00,
2013-05-29 18:07:00,80.7,71.0,29.62,SSW,210,8.0,15.0,72,0.00,,,0.00,weatherlink.com 1.10,2013-05-29 23:07:00,
2013-05-29 18:22:00,79.5,72.0,29.62,SSE,160,8.0,16.0,77,0.00,,,0.00,weatherlink.com 1.10,2013-05-29 23:22:00,
2013-05-29 18:37:00,78.5,72.0,29.62,SSW,211,13.0,15.0,80,0.00,,,0.00,weatherlink.com 1.10,2013-05-29 23:37:00,
2013-05-29 18:52:00,78.0,72.0,29.61,SSE,162,5.0,10.0,82,0.00,,,0.00,weatherlink.com 1.10,2013-05-29 23:52:00,
2013-05-29 19:07:00,77.6,72.0,29.62,SE,139,13.0,19.0,82,0.00,,,0.00,weatherlink.com 1.10,2013-05-30 00:07:00,
2013-05-29 19:22:00,77.2,71.0,29.63,SSW,207,7.0,14.0,82,0.00,,,0.00,weatherlink.com 1.10,2013-05-30 00:22:00,
2013-05-29 19:37:00,76.9,71.0,29.63,SSW,198,10.0,16.0,83,0.00,,,0.00,weatherlink.com 1.10,2013-05-30 00:37:00,
2013-05-29 19:52:00,76.6,71.0,29.63,SSW,210,6.0,15.0,83,0.00,,,0.00,weatherlink.com 1.10,2013-05-30 00:52:00,
2013-05-29 20:07:00,76.4,71.0,29.63,SSW,194,6.0,16.0,83,0.00,,,0.00,weatherlink.com 1.10,2013-05-30 01:07:00,
2013-05-29 20:22:00,76.1,71.0,29.63,SSW,203,7.0,16.0,84,0.00,,,0.00,weatherlink.com 1.10,2013-05-30 01:22:00,
2013-05-29 20:37:00,75.8,71.0,29.64,SE,131,7.0,18.0,84,0.00,,,0.00,weatherlink.com 1.10,2013-05-30 01:37:00,
2013-05-29 20:52:00,75.5,71.0,29.65,SW,214,7.0,9.0,85,0.00,,,0.00,weatherlink.com 1.10,2013-05-30 01:52:00,
2013-05-29 21:07:00,75.4,71.0,29.64,SE,146,9.0,14.0,85,0.00,,,0.00,weatherlink.com 1.10,2013-05-30 02:07:00,
2013-05-29 21:22:00,75.4,70.0,29.64,SSW,207,5.0,15.0,84,0.00,,,0.00,weatherlink.com 1.10,2013-05-30 02:22:00,
2013-05-29 21:37:00,75.3,70.0,29.65,SSE,152,2.0,16.0,84,0.00,,,0.00,weatherlink.com 1.10,2013-05-30 02:37:00,
2013-05-29 21:52:00,75.3,70.0,29.66,WSW,242,3.0,18.0,84,0.00,,,0.00,weatherlink.com 1.10,2013-05-30 02:52:00,
2013-05-29 22:07:00,75.2,70.0,29.66,ESE,111,5.0,14.0,84,0.00,,,0.00,weatherlink.com 1.10,2013-05-30 03:07:00,
2013-05-29 22:22:00,75.0,70.0,29.67,SSE,160,4.0,14.0,85,0.00,,,0.00,weatherlink.com 1.10,2013-05-30 03:22:00,
2013-05-29 22:37:00,74.8,70.0,29.68,SSE,156,6.0,21.0,84,0.00,,,0.00,weatherlink.com 1.10,2013-05-30 03:37:00,
2013-05-29 22:52:00,74.7,70.0,29.68,SSW,209,13.0,16.0,84,0.00,,,0.00,weatherlink.com 1.10,2013-05-30 03:52:00,
2013-05-29 23:07:00,74.6,70.0,29.69,South,188,6.0,18.0,84,0.00,,,0.00,weatherlink.com 1.10,2013-05-30 04:07:00,
2013-05-29 23:22:00,74.4,70.0,29.69,SSW,208,9.0,19.0,85,0.00,,,0.00,weatherlink.com 1.10,2013-05-30 04:22:00,
2013-05-29 23:37:00,74.1,69.0,29.70,SSW,195,6.0,17.0,85,0.00,,,0.00,weatherlink.com 1.10,2013-05-30 04:37:00,
2013-05-29 23:52:00,73.9,69.0,29.70,SSW,210,6.0,16.0,85,0.00,,,0.00,weatherlink.com 1.10,2013-05-30 04:52:00,